Flag Weather past 2 weeks in Salina, Kansas, U.S.A.

Now
42 °F

Passing clouds.


Feels Like: 31 °F
Forecast: 26 / 44 °F
Wind: 32 mph from North

Location: Salina Municipal Airport

Current Time: Nov 26, 2014 at 10:53:56 AM

Latest Report: Nov 26, 2014 at 9:53 AM


Visibility: 10 mi

Pressure: 30.13 "Hg

Humidity: 47%

Dew point: 23 °F

Location of SalinaLocation

Historic Weather in Salina — Graph

°F

Salina temperature yesterday

Maximum temperature yesterday: 53 °F (at 1:53 PM)
Minimum temperature yesterday: 21 °F (at 5:53 AM)
Average temperature yesterday: 38 °F

Past Weeks' High & Low Weather Summary

 TemperatureHumidityPressure
High60 °F (Nov 22, 3:53 PM)97% (Nov 21, 9:53 PM)30.71 "Hg (Nov 21, 9:53 PM)
Low7 °F (Nov 18, 4:53 AM)22% (Nov 18, 3:53 PM)29.44 "Hg (Nov 23, 3:53 AM)
Average32 °F60%30.18 "Hg
* Reported Nov 11 9:53 AM — Nov 26 9:53 AM, Salina, Weather by CustomWeather, © 2014

Note: Actual official high and low records may vary slightly from our data, if they occured in-between our weather recording intervals... More about our weather records

Advertising

Salina weather history for previous 24 hours

 ConditionsComfort  
Time TempWeatherWind HumidityBarometerVisibility
9:53 AM
Nov 26
42 °FPassing clouds.32 mph47%30.13 "Hg10 mi
8:53 AM43 °FSunny.26 mph49%30.09 "Hg10 mi
7:53 AM40 °FSunny.14 mph65%30.08 "Hg10 mi
6:53 AM43 °FPassing clouds.15 mph56%30.05 "Hg10 mi
5:53 AM41 °FPassing clouds.9 mph60%30.03 "Hg10 mi
4:53 AM43 °FClear.12 mph60%30.02 "Hg10 mi
3:53 AM44 °FPassing clouds.8 mph58%30.00 "Hg10 mi
2:53 AM45 °FMostly cloudy.10 mph58%29.99 "Hg10 mi
1:53 AM45 °FOvercast.10 mph49%29.97 "Hg10 mi
12:53 AM45 °FMostly cloudy.15 mph51%29.93 "Hg10 mi
11:53 PM
Nov 25
44 °FOvercast.12 mph53%29.94 "Hg10 mi
10:53 PM45 °FPassing clouds.15 mph51%29.94 "Hg10 mi
9:53 PM45 °FPassing clouds.24 mph49%29.94 "Hg10 mi
8:53 PM45 °FPassing clouds.15 mph49%29.96 "Hg10 mi
7:53 PM45 °FOvercast.16 mph48%29.96 "Hg10 mi
6:53 PM45 °FPassing clouds.9 mph49%30.00 "Hg10 mi
5:53 PM47 °FOvercast.10 mph44%30.00 "Hg10 mi
4:53 PM48 °FScattered clouds.8 mph39%30.01 "Hg10 mi
3:53 PM50 °FSunny.13 mph33%30.03 "Hg10 mi
2:53 PM52 °FSunny.15 mph30%30.05 "Hg10 mi
1:53 PM53 °FSunny.16 mph31%30.07 "Hg10 mi
12:53 PM50 °FSunny.15 mph36%30.12 "Hg10 mi
11:53 AM48 °FSunny.14 mph41%30.15 "Hg10 mi
10:53 AM43 °FSunny.12 mph47%30.21 "Hg10 mi
Weather by CustomWeather, © 2014

See weather overviewHow to use our weather pages